Regional Weather Roundup
Issued by NWS

Home | Current Version | Previous Version | Graphics & Text | Print | Product List | Glossary On
Versions: 1 2 3 4 5 6 7 8 9 10 11 12 13 14 15 16 17 18 19 20 21 22 23 24 25 26 27 28 29 30 31 32 33 34 35 36 37 38 39 40 41 42 43 44 45 46 47 48 49 50
000
ASUS43 KLMK 240710
RWRKY
KENTUCKY REGIONAL WEATHER ROUNDUP
NATIONAL WEATHER SERVICE LOUISVILLE KY
300 AM EDT SUN SEP 24 2017

NOTE "FAIR" INDICATES FEW OR NO CLOUDS BELOW 12,000 FEET
WITH NO SIGNIFICANT WEATHER AND/OR OBSTRUCTIONS TO VISIBILITY.

KYZ001>023-026-027-061>063-070>075-240800-
WESTERN AND SOUTH CENTRAL KENTUCKY

CITY           SKY/WX    TMP DP  RH WIND       PRES   REMARKS
PADUCAH        CLEAR     67  65  93 CALM      30.00S FOG
HENDERSON      CLEAR     64  63  96 CALM      30.04R
OWENSBORO      CLEAR     70  67  90 CALM      30.04S
HOPKINSVILLE   NOT AVBL
BOWLING GREEN  CLEAR     67  67 100 CALM      30.03S FOG
GLASGOW        CLEAR     64  64  99 CALM      30.03F
$$

KYZ024-025-028>034-038-045-046-053-240800-
NORTH CENTRAL KENTUCKY

CITY           SKY/WX    TMP DP  RH WIND       PRES   REMARKS
LOUISVILLE/SDF CLEAR     72  65  78 CALM      30.05S
LOUISVILLE/LOU CLEAR     69  67  93 CALM      30.06R
FORT KNOX      CLEAR     65  63  93 CALM      30.04R
$$

KYZ035>037-039>044-047>052-055>060-089>105-240800-
NORTHEAST KENTUCKY

CITY           SKY/WX    TMP DP  RH WIND       PRES   REMARKS
LEXINGTON      CLEAR     69  61  75 E8        30.08R
COVINGTON      CLEAR     72  62  71 CALM      30.08F
FRANKFORT      CLEAR     64  60  87 CALM      30.06S
$$

KYZ054-064>069-076>088-106>120-240800-
SOUTHEAST KENTUCKY

CITY           SKY/WX    TMP DP  RH WIND       PRES   REMARKS
JACKSON        CLEAR     69  62  78 CALM      30.10R
LONDON         CLEAR     64  61  90 CALM      30.08R
SOMERSET       CLEAR     63  63 100 CALM      30.07S
MIDDLESBORO    CLEAR     64  64 100 CALM      30.09S
MONTICELLO     SUNNY     63  62  97 CALM      30.08R
$$




USA.gov is the U.S. government's official web portal to all federal, state and local government web resources and services.